contact:dominique.lefevre@mio.osupytheas.fr, maurice.libes@osupytheas.fr, didier.mallarino@osupytheas.fr
Project:EMSO http://www.emso-fr.org/EMSO-France
Depth: 2436.0 m
Title:EMSO Ligure Ouest : Data MII capteur AQUADOPP
Date,Latitude,Longitude,X_East,Y_North,Z_Up,Amplitude_X,Amplitude_Y,Amplitude_Z,Batterie,SoundSpeed,Heading,Pitch,Roll,Pressure,TIS,Speed,Direction
, degrees North, degrees East, m.s-1, m.s-1,m.s-1, 1, 1, 1, Volt, m.s-1, degree, degree, degree, dbar, degree_C, m.s-1, degree
2019-10-22T00:04:04,42.805,6.029,0.007,-0.026,-0.064,100.0,103.0,98.0,13.4,1505.1,327.1,-0.8,1.8,2470.533,13.27,0.026,164.9
2019-10-22T00:07:05,42.805,6.029,0.007,-0.015,-0.052,99.0,103.0,99.0,13.3,1505.2,324.2,-0.8,1.9,2470.452,13.29,0.016,155.0
2019-10-22T00:10:06,42.805,6.029,0.026,-0.015,-0.009,102.0,103.0,98.0,13.4,1505.2,325.3,-0.7,1.9,2470.316,13.3,0.03,120.0
2019-10-22T00:13:07,42.805,6.029,0.029,-0.014,-0.04,98.0,104.0,99.0,13.3,1505.3,327.8,-0.7,1.8,2470.23,13.31,0.032,115.8
2019-10-22T00:16:08,42.805,6.029,0.03,-0.017,-0.031,99.0,104.0,99.0,13.4,1505.3,323.8,-0.7,1.9,2470.181,13.31,0.034,119.5
2019-10-22T00:19:09,42.805,6.029,0.027,-0.011,-0.051,100.0,102.0,99.0,13.4,1505.3,325.2,-0.7,1.8,2470.066,13.32,0.029,112.2
2019-10-22T00:22:10,42.805,6.029,-0.008,-0.034,-0.052,101.0,103.0,99.0,13.4,1505.3,324.8,-0.7,1.8,2470.062,13.32,0.034,193.2
2019-10-22T00:25:11,42.805,6.029,-0.004,-0.026,-0.086,100.0,103.0,98.0,13.3,1505.3,325.7,-0.7,1.8,2470.034,13.32,0.026,188.7
2019-10-22T00:28:12,42.805,6.029,0.007,0.004,-0.036,98.0,104.0,98.0,13.4,1505.3,325.1,-0.7,1.8,2470.01,13.32,0.008,60.3
2019-10-22T00:31:13,42.805,6.029,0.032,0.005,-0.027,100.0,102.0,98.0,13.4,1505.3,324.9,-0.7,1.8,2469.98,13.32,0.032,81.1
2019-10-22T00:34:14,42.805,6.029,-0.017,0.008,-0.038,99.0,103.0,98.0,13.4,1505.3,326.6,-0.7,1.8,2469.953,13.32,0.018,295.2
2019-10-22T00:37:15,42.805,6.029,-0.006,-0.015,-0.041,99.0,103.0,99.0,13.3,1505.3,324.5,-0.7,1.8,2469.897,13.32,0.016,201.8
2019-10-22T00:40:16,42.805,6.029,0.011,-0.02,-0.07,100.0,103.0,99.0,13.3,1505.3,325.0,-0.7,1.8,2470.0,13.32,0.022,151.2
2019-10-22T00:43:17,42.805,6.029,0.012,-0.035,-0.091,101.0,104.0,97.0,13.4,1505.3,323.4,-0.7,1.9,2469.951,13.32,0.037,161.1
2019-10-22T00:46:18,42.805,6.029,-0.001,-0.001,-0.083,100.0,102.0,100.0,13.3,1505.3,324.6,-0.7,1.8,2469.932,13.32,0.001,225.0
2019-10-22T00:49:19,42.805,6.029,0.013,-0.02,-0.039,100.0,103.0,98.0,13.4,1505.3,327.3,-0.7,1.8,2469.907,13.32,0.023,147.0
2019-10-22T00:52:20,42.805,6.029,0.01,-0.018,-0.043,100.0,103.0,98.0,13.4,1505.3,324.4,-0.7,1.8,2469.917,13.32,0.02,150.9
2019-10-22T00:55:21,42.805,6.029,-0.011,-0.019,-0.097,101.0,104.0,98.0,13.4,1505.3,324.5,-0.7,1.8,2469.949,13.32,0.021,210.1
2019-10-22T00:58:22,42.805,6.029,0.015,-0.034,-0.05,99.0,103.0,99.0,13.4,1505.3,326.0,-0.8,1.9,2469.928,13.32,0.037,156.2
2019-10-22T01:01:23,42.805,6.029,0.011,-0.013,-0.049,100.0,103.0,98.0,13.4,1505.3,326.1,-0.7,1.8,2469.954,13.32,0.017,139.8
2019-10-22T01:04:24,42.805,6.029,0.023,-0.013,-0.061,100.0,104.0,99.0,13.4,1505.3,324.9,-0.7,1.9,2469.954,13.32,0.026,119.5
2019-10-22T01:07:25,42.805,6.029,0.004,-0.014,-0.031,100.0,103.0,99.0,13.3,1505.3,328.6,-0.7,1.8,2469.958,13.32,0.014,164.1
2019-10-22T01:10:26,42.805,6.029,0.027,-0.016,-0.004,100.0,102.0,99.0,13.3,1505.3,325.8,-0.7,1.8,2469.919,13.32,0.031,120.7
2019-10-22T01:13:27,42.805,6.029,0.028,-0.008,-0.073,100.0,104.0,97.0,13.4,1505.3,323.7,-0.7,1.8,2470.014,13.32,0.029,105.9
2019-10-22T01:16:28,42.805,6.029,0.012,0.01,-0.009,101.0,103.0,98.0,13.3,1505.3,324.7,-0.7,1.9,2469.979,13.32,0.015,50.2
2019-10-22T01:19:29,42.805,6.029,0.014,-0.014,-0.045,98.0,104.0,99.0,13.4,1505.3,324.7,-0.7,1.8,2469.954,13.33,0.019,135.0
2019-10-22T01:22:30,42.805,6.029,0.031,-0.019,-0.035,101.0,103.0,97.0,13.4,1505.3,326.2,-0.7,1.9,2469.901,13.33,0.036,121.5
2019-10-22T01:25:31,42.805,6.029,-0.021,-0.004,-0.082,99.0,103.0,98.0,13.3,1505.3,323.3,-0.7,1.8,2469.938,13.32,0.021,259.2
2019-10-22T01:28:32,42.805,6.029,0.021,-0.016,-0.039,101.0,103.0,98.0,13.4,1505.3,324.4,-0.7,1.8,2469.931,13.32,0.026,127.3
2019-10-22T01:31:33,42.805,6.029,0.053,-0.015,-0.017,101.0,103.0,98.0,13.3,1505.3,323.3,-0.7,1.8,2469.936,13.32,0.055,105.8
2019-10-22T01:34:34,42.805,6.029,-0.004,-0.01,-0.047,100.0,103.0,100.0,13.3,1505.3,325.8,-0.7,1.8,2469.925,13.32,0.01,201.8
2019-10-22T01:37:35,42.805,6.029,0.019,-0.016,-0.051,100.0,104.0,98.0,13.4,1505.3,325.2,-0.7,1.8,2469.979,13.32,0.024,130.1
2019-10-22T01:40:36,42.805,6.029,0.014,-0.02,-0.036,102.0,104.0,99.0,13.4,1505.3,325.5,-0.7,1.8,2470.006,13.32,0.024,145.0
2019-10-22T01:43:37,42.805,6.029,0.014,-0.013,-0.065,99.0,104.0,97.0,13.4,1505.3,325.7,-0.7,1.9,2469.971,13.32,0.019,132.9
2019-10-22T01:46:38,42.805,6.029,-0.005,-0.024,-0.08,100.0,103.0,99.0,13.3,1505.3,327.1,-0.7,1.9,2469.965,13.33,0.024,191.8
2019-10-22T01:49:39,42.805,6.029,-0.02,-0.016,-0.057,98.0,104.0,99.0,13.3,1505.3,326.1,-0.7,1.8,2470.014,13.33,0.025,231.3
2019-10-22T01:52:40,42.805,6.029,0.013,-0.02,-0.01,101.0,103.0,98.0,13.4,1505.3,324.0,-0.7,1.9,2469.983,13.33,0.023,147.0
2019-10-22T01:55:41,42.805,6.029,-0.008,-0.002,-0.065,98.0,105.0,99.0,13.4,1505.3,328.4,-0.7,1.9,2469.96,13.33,0.008,256.0
2019-10-22T01:58:42,42.805,6.029,0.045,-0.005,-0.015,100.0,103.0,98.0,13.3,1505.3,324.3,-0.7,1.8,2469.966,13.33,0.045,96.3
2019-10-22T02:01:43,42.805,6.029,0.021,-0.018,-0.052,101.0,104.0,99.0,13.3,1505.3,325.9,-0.7,1.8,2469.952,13.33,0.027,130.6
2019-10-22T02:04:44,42.805,6.029,0.0,-0.003,-0.067,99.0,104.0,98.0,13.3,1505.3,323.6,-0.7,1.9,2469.962,13.33,0.003,180.0
2019-10-22T02:07:45,42.805,6.029,0.021,0.008,-0.039,100.0,104.0,99.0,13.4,1505.3,325.0,-0.7,1.8,2469.94,13.33,0.022,69.1
2019-10-22T02:10:46,42.805,6.029,0.017,-0.016,-0.03,100.0,105.0,98.0,13.4,1505.3,328.4,-0.7,1.8,2469.964,13.33,0.023,133.3
2019-10-22T02:13:47,42.805,6.029,0.024,0.0,-0.041,100.0,104.0,99.0,13.4,1505.3,326.6,-0.7,1.9,2469.984,13.33,0.024,90.0
2019-10-22T02:16:48,42.805,6.029,0.004,-0.014,-0.055,101.0,104.0,99.0,13.4,1505.3,327.9,-0.7,1.9,2469.961,13.33,0.014,164.1
2019-10-22T02:19:49,42.805,6.029,0.007,-0.001,0.001,99.0,104.0,99.0,13.4,1505.3,323.5,-0.7,1.8,2469.964,13.33,0.007,98.1
2019-10-22T02:22:50,42.805,6.029,-0.014,-0.009,-0.063,100.0,106.0,99.0,13.4,1505.3,326.7,-0.7,1.9,2469.984,13.33,0.016,237.3
2019-10-22T02:25:51,42.805,6.029,-0.04,-0.002,-0.103,100.0,103.0,99.0,13.3,1505.3,326.6,-0.7,1.8,2469.968,13.33,0.04,267.1
2019-10-22T02:28:52,42.805,6.029,0.023,-0.007,-0.044,102.0,105.0,98.0,13.3,1505.3,325.1,-0.7,1.8,2469.948,13.33,0.024,106.9
2019-10-22T02:31:53,42.805,6.029,-0.023,0.014,-0.07,101.0,103.0,97.0,13.4,1505.3,326.5,-0.7,1.8,2469.955,13.33,0.026,301.3
2019-10-22T02:34:54,42.805,6.029,0.009,0.003,-0.042,100.0,104.0,98.0,13.4,1505.3,324.0,-0.7,1.8,2469.966,13.33,0.009,71.6
2019-10-22T02:37:55,42.805,6.029,-0.036,-0.006,-0.092,101.0,104.0,98.0,13.4,1505.3,325.0,-0.7,1.8,2469.958,13.33,0.036,260.5
2019-10-22T02:40:56,42.805,6.029,0.015,0.005,-0.038,101.0,104.0,98.0,13.4,1505.3,327.6,-0.7,1.8,2469.965,13.33,0.015,71.6
2019-10-22T02:43:57,42.805,6.029,0.063,0.0,0.011,100.0,104.0,97.0,13.4,1505.3,323.3,-0.7,1.9,2470.033,13.33,0.062,90.0
2019-10-22T02:46:58,42.805,6.029,0.01,0.002,-0.039,100.0,105.0,98.0,13.3,1505.3,325.9,-0.7,1.9,2470.016,13.33,0.01,78.7
2019-10-22T02:49:59,42.805,6.029,0.023,-0.015,-0.033,102.0,103.0,99.0,13.4,1505.3,326.5,-0.7,1.8,2469.938,13.33,0.027,123.1
2019-10-22T02:53:00,42.805,6.029,-0.004,0.013,-0.052,100.0,106.0,98.0,13.4,1505.3,326.4,-0.7,1.8,2469.98,13.33,0.013,342.9
2019-10-22T02:56:01,42.805,6.029,0.015,0.001,-0.056,101.0,104.0,98.0,13.4,1505.3,326.1,-0.7,1.8,2469.968,13.33,0.015,86.2
2019-10-22T02:59:02,42.805,6.029,0.044,0.02,-0.034,100.0,105.0,98.0,13.4,1505.3,323.1,-0.7,1.9,2470.005,13.33,0.048,65.6
2019-10-22T03:02:03,42.805,6.029,0.016,0.0,-0.053,100.0,104.0,99.0,13.4,1505.3,326.1,-0.7,1.8,2469.979,13.33,0.016,90.0
2019-10-22T03:05:04,42.805,6.029,0.024,-0.015,-0.063,100.0,104.0,98.0,13.4,1505.3,326.8,-0.7,1.9,2469.986,13.33,0.028,122.0
2019-10-22T03:08:05,42.805,6.029,0.009,-0.013,-0.028,100.0,105.0,100.0,13.3,1505.3,326.8,-0.7,1.8,2469.973,13.33,0.015,145.3
2019-10-22T03:11:06,42.805,6.029,0.009,-0.009,-0.052,100.0,104.0,99.0,13.4,1505.3,323.1,-0.7,1.8,2469.995,13.33,0.012,135.0
2019-10-22T03:14:07,42.805,6.029,0.024,0.009,-0.044,100.0,105.0,99.0,13.3,1505.3,325.1,-0.7,1.8,2469.958,13.33,0.025,69.4
2019-10-22T03:17:08,42.805,6.029,0.007,-0.007,-0.048,101.0,105.0,99.0,13.4,1505.3,327.1,-0.7,1.8,2469.964,13.33,0.009,135.0
2019-10-22T03:20:09,42.805,6.029,-0.005,-0.004,-0.04,101.0,105.0,98.0,13.4,1505.3,326.4,-0.7,1.8,2470.018,13.33,0.006,231.3
2019-10-22T03:23:10,42.805,6.029,-0.009,0.0,-0.026,100.0,105.0,97.0,13.4,1505.3,325.6,-0.7,1.9,2469.995,13.33,0.009,270.0
2019-10-22T03:26:11,42.805,6.029,0.048,0.008,0.01,100.0,104.0,98.0,13.4,1505.3,324.9,-0.7,1.8,2469.959,13.33,0.048,80.5
2019-10-22T03:29:12,42.805,6.029,0.01,-0.015,-0.043,102.0,105.0,99.0,13.3,1505.3,326.4,-0.7,1.8,2470.004,13.33,0.018,146.3
2019-10-22T03:32:13,42.805,6.029,-0.017,0.018,-0.086,100.0,106.0,98.0,13.3,1505.3,327.6,-0.7,1.8,2469.997,13.33,0.024,316.6
2019-10-22T03:35:14,42.805,6.029,-0.004,0.009,-0.056,101.0,104.0,98.0,13.4,1505.3,326.8,-0.7,1.8,2469.965,13.33,0.009,336.0
2019-10-22T03:38:15,42.805,6.029,-0.024,-0.006,-0.065,100.0,104.0,98.0,13.4,1505.3,328.4,-0.7,1.8,2470.003,13.33,0.024,256.0
2019-10-22T03:41:16,42.805,6.029,-0.003,0.012,-0.057,98.0,105.0,99.0,13.4,1505.3,323.6,-0.7,1.8,2469.99,13.33,0.012,346.0
2019-10-22T03:44:17,42.805,6.029,0.018,-0.005,-0.075,101.0,105.0,98.0,13.3,1505.3,324.9,-0.7,1.8,2469.971,13.33,0.018,105.5
2019-10-22T03:47:18,42.805,6.029,0.009,-0.019,-0.044,101.0,104.0,98.0,13.4,1505.3,327.1,-0.7,1.8,2470.008,13.33,0.021,154.7
2019-10-22T03:50:19,42.805,6.029,0.02,-0.009,-0.025,101.0,104.0,99.0,13.4,1505.3,326.3,-0.7,1.8,2469.976,13.33,0.021,114.2
2019-10-22T03:53:20,42.805,6.029,0.016,-0.008,-0.044,100.0,105.0,98.0,13.3,1505.3,327.4,-0.7,1.8,2469.99,13.33,0.017,116.6
2019-10-22T03:56:21,42.805,6.029,0.0,-0.017,-0.09,101.0,104.0,99.0,13.3,1505.3,323.8,-0.7,1.8,2470.011,13.33,0.017,180.0
2019-10-22T03:59:22,42.805,6.029,0.002,-0.014,-0.063,99.0,106.0,99.0,13.4,1505.3,326.6,-0.7,1.8,2469.964,13.33,0.014,171.9
2019-10-22T04:02:23,42.805,6.029,0.031,-0.004,-0.028,100.0,104.0,99.0,13.4,1505.3,324.9,-0.7,1.9,2469.984,13.33,0.031,97.3
2019-10-22T04:05:24,42.805,6.029,0.001,-0.001,-0.045,101.0,106.0,99.0,13.3,1505.3,325.5,-0.7,1.8,2470.008,13.33,0.001,135.0
2019-10-22T04:08:25,42.805,6.029,-0.033,-0.022,-0.109,100.0,106.0,98.0,13.3,1505.3,327.9,-0.7,1.8,2470.005,13.33,0.039,236.3
2019-10-22T04:11:26,42.805,6.029,0.023,-0.003,-0.041,100.0,105.0,99.0,13.3,1505.3,327.1,-0.7,1.8,2469.952,13.33,0.023,97.4
2019-10-22T04:14:27,42.805,6.029,0.026,-0.014,-0.066,100.0,104.0,99.0,13.4,1505.3,324.4,-0.7,1.8,2469.989,13.33,0.029,118.3
2019-10-22T04:17:28,42.805,6.029,0.016,-0.006,-0.032,100.0,104.0,99.0,13.4,1505.3,324.7,-0.7,1.8,2469.992,13.33,0.017,110.6
2019-10-22T04:20:29,42.805,6.029,0.019,0.0,-0.052,100.0,104.0,99.0,13.4,1505.3,325.4,-0.7,1.8,2469.962,13.33,0.019,90.0
2019-10-22T04:23:30,42.805,6.029,0.013,-0.011,-0.046,101.0,106.0,98.0,13.3,1505.3,326.3,-0.7,1.8,2469.945,13.33,0.017,130.2
2019-10-22T04:26:31,42.805,6.029,0.003,0.001,-0.065,101.0,105.0,98.0,13.4,1505.3,325.7,-0.7,1.9,2469.967,13.33,0.003,71.6
2019-10-22T04:29:32,42.805,6.029,0.006,-0.003,-0.06,99.0,106.0,97.0,13.4,1505.3,325.0,-0.7,1.8,2470.07,13.33,0.006,116.6
2019-10-22T04:32:33,42.805,6.029,0.034,0.011,-0.017,102.0,103.0,98.0,13.4,1505.3,325.0,-0.7,1.8,2469.949,13.33,0.035,72.1
2019-10-22T04:35:34,42.805,6.029,0.045,-0.019,-0.038,100.0,106.0,98.0,13.4,1505.3,327.7,-0.8,1.9,2469.973,13.33,0.048,112.9
2019-10-22T04:38:35,42.805,6.029,0.005,-0.011,-0.029,100.0,104.0,98.0,13.4,1505.3,323.8,-0.7,1.8,2469.977,13.33,0.012,155.6
2019-10-22T04:41:36,42.805,6.029,0.0,0.0,-0.07,100.0,105.0,99.0,13.4,1505.3,322.7,-0.7,1.8,2469.989,13.33,0.0,0.0
2019-10-22T04:44:37,42.805,6.029,-0.011,0.006,-0.043,101.0,104.0,99.0,13.3,1505.3,325.0,-0.7,1.8,2469.958,13.33,0.012,298.6
2019-10-22T04:47:38,42.805,6.029,0.014,0.006,-0.015,101.0,105.0,99.0,13.3,1505.3,326.7,-0.7,1.8,2469.917,13.33,0.015,66.8
2019-10-22T04:50:39,42.805,6.029,0.013,0.007,-0.055,100.0,104.0,98.0,13.4,1505.3,326.3,-0.7,1.8,2469.988,13.33,0.014,61.7
2019-10-22T04:53:40,42.805,6.029,-0.006,-0.004,-0.054,101.0,105.0,98.0,13.4,1505.3,327.6,-0.7,1.9,2469.968,13.33,0.007,236.3
2019-10-22T04:56:41,42.805,6.029,0.002,-0.011,-0.043,100.0,104.0,98.0,13.4,1505.3,327.7,-0.7,1.8,2469.943,13.33,0.011,169.7
2019-10-22T04:59:42,42.805,6.029,0.028,-0.007,-0.023,100.0,104.0,99.0,13.4,1505.3,325.2,-0.7,1.8,2469.964,13.33,0.028,104.0
2019-10-22T05:02:43,42.805,6.029,-0.004,-0.015,-0.068,100.0,104.0,99.0,13.4,1505.3,324.4,-0.8,1.8,2469.949,13.33,0.015,194.9
2019-10-22T05:05:44,42.805,6.029,-0.008,0.015,-0.05,102.0,104.0,98.0,13.4,1505.3,327.0,-0.7,1.8,2469.944,13.33,0.017,331.9
2019-10-22T05:08:45,42.805,6.029,0.025,0.007,-0.008,100.0,105.0,98.0,13.4,1505.3,324.7,-0.7,1.9,2469.948,13.33,0.025,74.4
2019-10-22T05:11:46,42.805,6.029,0.036,-0.011,-0.042,99.0,105.0,99.0,13.3,1505.3,323.0,-0.7,1.8,2469.979,13.32,0.037,107.0
2019-10-22T05:14:47,42.805,6.029,0.001,0.009,-0.048,101.0,104.0,98.0,13.4,1505.3,324.9,-0.7,1.8,2469.961,13.32,0.009,6.3
2019-10-22T05:17:48,42.805,6.029,0.05,0.001,0.002,101.0,105.0,98.0,13.4,1505.3,324.4,-0.7,1.8,2469.979,13.32,0.05,88.9
2019-10-22T05:20:49,42.805,6.029,0.028,-0.006,-0.042,101.0,105.0,98.0,13.3,1505.3,326.9,-0.7,1.8,2469.968,13.32,0.028,102.1
2019-10-22T05:23:50,42.805,6.029,0.032,-0.002,-0.014,100.0,106.0,99.0,13.4,1505.3,325.0,-0.7,1.8,2469.892,13.32,0.032,93.6
2019-10-22T05:26:51,42.805,6.029,0.043,0.003,0.01,100.0,105.0,98.0,13.4,1505.3,323.6,-0.8,1.8,2469.947,13.32,0.043,86.0
2019-10-22T05:29:52,42.805,6.029,0.016,0.01,-0.002,99.0,105.0,99.0,13.3,1505.3,324.8,-0.7,1.9,2469.962,13.32,0.018,58.0
2019-10-22T05:32:53,42.805,6.029,0.05,0.035,-0.009,100.0,104.0,98.0,13.4,1505.3,326.5,-0.7,1.9,2469.94,13.33,0.061,55.0
2019-10-22T05:35:54,42.805,6.029,0.049,-0.001,-0.03,101.0,105.0,99.0,13.4,1505.3,325.6,-0.7,1.8,2469.923,13.33,0.049,91.2
2019-10-22T05:38:55,42.805,6.029,0.026,-0.01,-0.02,101.0,105.0,98.0,13.4,1505.3,326.0,-0.7,1.8,2469.94,13.33,0.027,111.0
2019-10-22T05:41:56,42.805,6.029,0.032,-0.013,-0.021,99.0,105.0,98.0,13.3,1505.3,325.6,-0.8,1.8,2469.98,13.33,0.034,112.1
2019-10-22T05:44:57,42.805,6.029,0.003,-0.003,-0.059,99.0,107.0,98.0,13.4,1505.3,325.0,-0.7,1.8,2469.98,13.32,0.004,135.0
2019-10-22T05:47:58,42.805,6.029,0.003,-0.002,-0.019,100.0,106.0,98.0,13.4,1505.3,324.3,-0.7,1.9,2469.924,13.32,0.003,123.7
2019-10-22T05:50:59,42.805,6.029,0.017,0.012,-0.036,100.0,106.0,98.0,13.4,1505.3,326.0,-0.7,1.8,2469.96,13.32,0.02,54.8
2019-10-22T05:54:00,42.805,6.029,0.012,0.006,-0.036,100.0,107.0,97.0,13.4,1505.3,327.0,-0.7,1.8,2469.947,13.32,0.013,63.4
2019-10-22T05:57:01,42.805,6.029,0.006,-0.007,-0.025,100.0,105.0,99.0,13.3,1505.3,326.8,-0.7,1.8,2469.964,13.32,0.009,139.4
2019-10-22T06:00:02,42.805,6.029,0.014,-0.01,-0.031,101.0,106.0,98.0,13.4,1505.3,324.5,-0.7,1.8,2469.929,13.32,0.017,125.5
2019-10-22T06:03:03,42.805,6.029,0.017,0.002,-0.017,100.0,105.0,100.0,13.4,1505.3,324.5,-0.7,1.8,2469.95,13.32,0.017,83.3
2019-10-22T06:06:04,42.805,6.029,0.015,0.002,-0.014,99.0,107.0,98.0,13.4,1505.3,326.0,-0.7,1.8,2469.95,13.32,0.015,82.4
2019-10-22T06:09:05,42.805,6.029,0.029,0.014,-0.032,101.0,104.0,98.0,13.4,1505.3,325.4,-0.7,1.8,2469.904,13.32,0.032,64.2
2019-10-22T06:12:06,42.805,6.029,-0.004,0.004,-0.04,100.0,107.0,99.0,13.3,1505.3,327.3,-0.7,1.8,2469.954,13.32,0.005,315.0
2019-10-22T06:15:07,42.805,6.029,-0.007,0.0,-0.025,101.0,106.0,98.0,13.4,1505.3,325.3,-0.7,1.9,2469.967,13.32,0.007,270.0
2019-10-22T06:18:08,42.805,6.029,-0.003,-0.001,-0.02,100.0,104.0,98.0,13.4,1505.3,327.5,-0.7,1.8,2469.937,13.32,0.003,251.6
2019-10-22T06:21:09,42.805,6.029,0.036,0.005,-0.014,101.0,105.0,99.0,13.4,1505.3,325.2,-0.8,1.8,2469.961,13.32,0.036,82.1
2019-10-22T06:24:10,42.805,6.029,0.031,-0.001,-0.02,101.0,104.0,98.0,13.4,1505.3,328.1,-0.7,1.8,2469.945,13.32,0.031,91.8
2019-10-22T06:27:11,42.805,6.029,0.025,-0.01,-0.055,100.0,105.0,98.0,13.4,1505.3,327.3,-0.7,1.8,2469.965,13.32,0.026,111.8
2019-10-22T06:30:12,42.805,6.029,-0.003,0.008,-0.036,99.0,106.0,98.0,13.3,1505.3,325.5,-0.7,1.8,2469.959,13.32,0.008,339.4
2019-10-22T06:33:13,42.805,6.029,0.011,0.016,-0.055,101.0,106.0,99.0,13.4,1505.3,324.8,-0.7,1.8,2469.996,13.32,0.019,34.5
2019-10-22T06:36:14,42.805,6.029,0.02,0.005,-0.068,99.0,106.0,98.0,13.3,1505.3,324.2,-0.7,1.8,2469.988,13.32,0.02,76.0
2019-10-22T06:39:15,42.805,6.029,0.045,-0.007,-0.018,101.0,106.0,98.0,13.3,1505.3,327.3,-0.7,1.8,2470.009,13.32,0.045,98.8
2019-10-22T06:42:16,42.805,6.029,0.038,-0.011,-0.017,100.0,106.0,99.0,13.4,1505.3,325.5,-0.7,1.9,2469.91,13.32,0.039,106.1
2019-10-22T06:45:17,42.805,6.029,0.042,-0.005,-0.033,101.0,105.0,97.0,13.4,1505.3,324.5,-0.7,1.8,2469.959,13.32,0.042,96.8
2019-10-22T06:48:18,42.805,6.029,0.043,0.007,-0.02,102.0,103.0,98.0,13.3,1505.3,323.2,-0.7,1.8,2469.887,13.32,0.043,80.8
2019-10-22T06:51:19,42.805,6.029,0.015,-0.007,-0.042,101.0,106.0,98.0,13.4,1505.3,324.8,-0.7,1.8,2469.905,13.32,0.016,115.0
2019-10-22T06:54:20,42.805,6.029,0.044,0.003,-0.009,101.0,104.0,100.0,13.3,1505.3,326.4,-0.7,1.8,2469.941,13.32,0.044,86.1
2019-10-22T06:57:21,42.805,6.029,0.028,0.006,-0.012,101.0,104.0,98.0,13.4,1505.3,324.7,-0.7,1.8,2469.933,13.32,0.028,77.9
2019-10-22T07:00:22,42.805,6.029,0.021,0.0,-0.043,101.0,103.0,98.0,13.4,1505.3,326.7,-0.7,1.8,2469.932,13.32,0.021,90.0
2019-10-22T07:03:23,42.805,6.029,0.027,-0.006,-0.001,100.0,103.0,98.0,13.4,1505.3,326.1,-0.6,1.9,2469.923,13.32,0.027,102.5
2019-10-22T07:06:24,42.805,6.029,0.039,0.0,-0.036,102.0,105.0,98.0,13.4,1505.3,325.2,-0.7,1.9,2469.961,13.32,0.039,90.0
2019-10-22T07:09:25,42.805,6.029,0.029,-0.007,-0.013,99.0,105.0,99.0,13.4,1505.3,327.9,-0.7,1.8,2469.936,13.32,0.029,103.6
2019-10-22T07:12:26,42.805,6.029,0.03,0.0,-0.028,101.0,106.0,99.0,13.4,1505.3,326.8,-0.7,1.8,2469.931,13.32,0.03,90.0
2019-10-22T07:15:27,42.805,6.029,0.046,0.009,-0.049,101.0,105.0,99.0,13.3,1505.3,326.0,-0.7,1.8,2469.949,13.32,0.046,78.9
2019-10-22T07:18:28,42.805,6.029,0.019,-0.006,-0.008,98.0,106.0,99.0,13.4,1505.3,324.7,-0.7,1.8,2469.946,13.32,0.019,107.5
2019-10-22T07:21:29,42.805,6.029,0.071,-0.006,0.011,102.0,105.0,98.0,13.4,1505.3,327.7,-0.8,1.8,2469.94,13.32,0.071,94.8
2019-10-22T07:24:30,42.805,6.029,0.035,0.0,-0.022,100.0,104.0,98.0,13.4,1505.3,323.8,-0.7,1.8,2469.948,13.32,0.035,90.0
2019-10-22T07:27:31,42.805,6.029,0.013,0.026,-0.038,101.0,103.0,98.0,13.4,1505.3,323.8,-0.7,1.9,2469.925,13.32,0.029,26.6
2019-10-22T07:30:32,42.805,6.029,0.031,0.004,-0.01,101.0,105.0,99.0,13.4,1505.3,324.3,-0.7,1.8,2469.953,13.32,0.031,82.7
2019-10-22T07:33:33,42.805,6.029,0.006,0.009,-0.017,101.0,105.0,98.0,13.3,1505.3,327.4,-0.7,1.8,2469.939,13.32,0.01,33.7
2019-10-22T07:36:34,42.805,6.029,0.035,0.012,-0.035,100.0,105.0,98.0,13.4,1505.3,326.3,-0.7,1.8,2469.938,13.32,0.037,71.1
2019-10-22T07:39:35,42.805,6.029,0.019,-0.011,-0.017,100.0,105.0,98.0,13.4,1505.3,328.2,-0.7,1.8,2469.919,13.32,0.021,120.1
2019-10-22T07:42:36,42.805,6.029,0.03,-0.004,-0.034,101.0,105.0,99.0,13.4,1505.3,325.6,-0.7,1.8,2469.948,13.32,0.03,97.6
2019-10-22T07:45:37,42.805,6.029,0.012,0.001,-0.065,100.0,106.0,99.0,13.4,1505.3,323.9,-0.7,1.8,2469.955,13.32,0.012,85.2
2019-10-22T07:48:38,42.805,6.029,0.026,-0.001,-0.038,100.0,105.0,98.0,13.4,1505.3,324.2,-0.7,1.8,2469.959,13.32,0.026,92.2
2019-10-22T07:51:39,42.805,6.029,0.035,0.002,-0.013,99.0,105.0,99.0,13.3,1505.3,327.0,-0.7,1.8,2469.94,13.32,0.035,86.7
2019-10-22T07:54:40,42.805,6.029,0.036,0.021,-0.004,101.0,104.0,98.0,13.4,1505.3,324.8,-0.7,1.8,2469.929,13.32,0.041,59.7
2019-10-22T07:57:41,42.805,6.029,0.039,0.015,-0.028,98.0,105.0,100.0,13.3,1505.3,324.9,-0.7,1.9,2469.972,13.32,0.041,69.0
2019-10-22T08:00:42,42.805,6.029,0.049,0.009,-0.008,100.0,105.0,99.0,13.4,1505.3,324.7,-0.7,1.9,2469.973,13.32,0.049,79.6
2019-10-22T08:03:43,42.805,6.029,0.026,0.001,-0.015,100.0,105.0,98.0,13.4,1505.3,328.6,-0.7,1.8,2469.943,13.32,0.026,87.8
2019-10-22T08:06:44,42.805,6.029,0.041,0.021,-0.005,102.0,104.0,100.0,13.3,1505.3,324.3,-0.8,1.8,2469.96,13.32,0.046,62.9
2019-10-22T08:09:45,42.805,6.029,0.06,-0.005,0.003,101.0,103.0,99.0,13.4,1505.3,324.5,-0.7,1.8,2469.951,13.32,0.06,94.8
2019-10-22T08:12:46,42.805,6.029,0.033,0.01,-0.047,100.0,105.0,98.0,13.4,1505.3,326.8,-0.7,1.8,2469.958,13.32,0.034,73.1
2019-10-22T08:15:47,42.805,6.029,0.036,-0.005,-0.034,101.0,104.0,98.0,13.3,1505.3,326.7,-0.7,1.9,2469.926,13.32,0.036,97.9
2019-10-22T08:18:48,42.805,6.029,0.019,0.005,-0.015,101.0,104.0,98.0,13.4,1505.3,327.9,-0.7,1.8,2469.985,13.32,0.019,75.3
2019-10-22T08:21:49,42.805,6.029,0.032,0.017,-0.02,99.0,104.0,98.0,13.4,1505.3,326.4,-0.7,1.8,2469.996,13.32,0.036,62.0
2019-10-22T08:24:50,42.805,6.029,0.042,-0.01,-0.056,101.0,104.0,97.0,13.4,1505.3,328.0,-0.7,1.8,2469.958,13.32,0.043,103.4
2019-10-22T08:27:51,42.805,6.029,0.022,-0.005,-0.062,100.0,104.0,99.0,13.3,1505.3,325.2,-0.7,1.8,2469.936,13.32,0.022,102.8
2019-10-22T08:30:52,42.805,6.029,0.039,-0.003,-0.018,101.0,105.0,97.0,13.4,1505.3,323.0,-0.7,1.8,2469.99,13.32,0.039,94.4
2019-10-22T08:33:53,42.805,6.029,0.039,-0.001,-0.017,101.0,104.0,98.0,13.4,1505.3,326.7,-0.7,1.8,2469.964,13.32,0.039,91.5
2019-10-22T08:36:54,42.805,6.029,0.029,0.02,-0.012,100.0,104.0,98.0,13.4,1505.3,325.7,-0.7,1.8,2469.984,13.32,0.035,55.4
2019-10-22T08:39:55,42.805,6.029,0.03,-0.01,-0.042,99.0,106.0,99.0,13.4,1505.3,327.9,-0.7,1.9,2469.999,13.32,0.031,108.4
2019-10-22T08:42:56,42.805,6.029,0.038,0.001,-0.002,100.0,104.0,98.0,13.4,1505.3,326.1,-0.7,1.8,2469.989,13.32,0.038,88.5
2019-10-22T08:45:57,42.805,6.029,0.037,0.01,-0.036,99.0,104.0,98.0,13.4,1505.3,326.5,-0.7,1.8,2470.001,13.32,0.038,74.9
2019-10-22T08:48:58,42.805,6.029,0.04,-0.008,-0.025,99.0,107.0,98.0,13.4,1505.3,323.7,-0.7,1.8,2470.018,13.32,0.04,101.3
2019-10-22T08:51:59,42.805,6.029,0.044,-0.006,-0.015,101.0,106.0,98.0,13.4,1505.3,326.4,-0.7,1.8,2469.972,13.32,0.044,97.8
2019-10-22T08:55:00,42.805,6.029,0.06,-0.02,-0.007,100.0,105.0,98.0,13.4,1505.3,325.0,-0.7,1.8,2469.98,13.32,0.063,108.4
2019-10-22T08:58:01,42.805,6.029,0.053,-0.013,-0.017,100.0,104.0,100.0,13.3,1505.3,327.4,-0.7,1.8,2469.98,13.32,0.054,103.8
2019-10-22T09:01:02,42.805,6.029,0.03,-0.016,-0.034,100.0,104.0,99.0,13.4,1505.3,327.7,-0.7,1.8,2469.974,13.32,0.034,118.1
2019-10-22T09:04:03,42.805,6.029,0.005,0.0,-0.038,100.0,104.0,98.0,13.4,1505.3,325.0,-0.7,1.8,2469.964,13.32,0.005,90.0
2019-10-22T09:07:04,42.805,6.029,0.063,-0.019,0.025,100.0,105.0,98.0,13.4,1505.3,324.8,-0.7,1.8,2469.979,13.32,0.065,106.8
2019-10-22T09:10:05,42.805,6.029,0.039,-0.031,-0.009,101.0,104.0,98.0,13.4,1505.3,327.1,-0.7,1.8,2469.978,13.32,0.049,128.5
2019-10-22T09:13:06,42.805,6.029,0.06,0.0,-0.023,100.0,105.0,99.0,13.3,1505.3,327.4,-0.7,1.8,2469.992,13.32,0.06,90.0
2019-10-22T09:16:07,42.805,6.029,0.06,0.018,0.023,100.0,103.0,100.0,13.4,1505.3,323.9,-0.7,1.8,2469.967,13.32,0.062,73.3
2019-10-22T09:19:08,42.805,6.029,0.052,0.0,-0.001,101.0,105.0,98.0,13.4,1505.3,325.1,-0.7,1.8,2469.969,13.32,0.052,90.0
2019-10-22T09:22:09,42.805,6.029,0.058,-0.001,-0.009,98.0,105.0,99.0,13.4,1505.3,327.7,-0.7,1.8,2470.003,13.32,0.058,91.0
2019-10-22T09:25:10,42.805,6.029,0.067,-0.003,0.015,100.0,104.0,98.0,13.4,1505.3,323.4,-0.7,1.8,2470.03,13.32,0.067,92.6
2019-10-22T09:28:11,42.805,6.029,0.064,-0.006,0.008,101.0,104.0,99.0,13.4,1505.3,327.8,-0.7,1.8,2469.96,13.32,0.064,95.4
2019-10-22T09:31:12,42.805,6.029,0.052,-0.011,-0.002,101.0,104.0,99.0,13.4,1505.3,325.6,-0.7,1.8,2469.976,13.32,0.053,101.9
2019-10-22T09:34:13,42.805,6.029,0.057,0.001,-0.006,101.0,105.0,97.0,13.3,1505.3,325.9,-0.7,1.8,2469.994,13.32,0.057,89.0
2019-10-22T09:37:14,42.805,6.029,0.049,0.002,0.018,101.0,104.0,98.0,13.4,1505.3,323.1,-0.7,1.8,2469.991,13.32,0.049,87.7
2019-10-22T09:40:15,42.805,6.029,0.048,-0.004,0.003,101.0,110.0,99.0,13.4,1505.3,324.9,-0.7,1.8,2470.026,13.32,0.048,94.8